Previsão horária em Almáskamarás

Hoje, 25 Junho, Sexta-feira

Tempo Temperatura Precipitação Vento Pressão Humidade
00:00 +27°C° 0 mm 2 m/s 751 mmHg 56%
01:00 +27°C° 0 mm 2 m/s 751 mmHg 60%
02:00 +26°C° 0 mm 2 m/s 751 mmHg 63%
03:00 +26°C° 0 mm 2 m/s 751 mmHg 66%
04:00 +25°C° 0 mm 2 m/s 751 mmHg 68%
05:00 +26°C° 0 mm 2 m/s 751 mmHg 65%
06:00 +28°C° 0 mm 2 m/s 751 mmHg 61%
07:00 +30°C° 0 mm 1 m/s 752 mmHg 57%
08:00 +31°C° 0 mm 2 m/s 752 mmHg 51%
09:00 +34°C° 0 mm 2 m/s 752 mmHg 45%
10:00 +36°C° 0 mm 2 m/s 752 mmHg 38%
11:00 +37°C° 0 mm 3 m/s 751 mmHg 36%
12:00 +37°C° 0 mm 3 m/s 751 mmHg 34%
13:00 +38°C° 0 mm 3 m/s 751 mmHg 32%
14:00 +37°C° 0 mm 4 m/s 751 mmHg 33%
15:00 +37°C° 0 mm 4 m/s 750 mmHg 34%
16:00 +37°C° 0 mm 5 m/s 750 mmHg 35%
17:00 +34°C° 0.3 mm 5 m/s 750 mmHg 45%
18:00 +30°C° 0.3 mm 5 m/s 750 mmHg 55%
19:00 +27°C° 0.3 mm 5 m/s 750 mmHg 65%
20:00 +25°C° 4.4 mm 4 m/s 751 mmHg 74%
21:00 +22°C° 4.4 mm 3 m/s 752 mmHg 82%
22:00 +20°C° 4.4 mm 2 m/s 753 mmHg 90%
23:00 +20°C° 0 mm 2 m/s 753 mmHg 92%

Amanhã, 26 Junho, Sábado

Tempo Temperatura Precipitação Vento Pressão Humidade
00:00 +19°C° 0 mm 2 m/s 752 mmHg 93%
01:00 +19°C° 0 mm 2 m/s 752 mmHg 94%
02:00 +19°C° 0 mm 2 m/s 752 mmHg 95%
03:00 +19°C° 0 mm 2 m/s 752 mmHg 95%
04:00 +18°C° 0 mm 2 m/s 752 mmHg 96%
05:00 +20°C° 0 mm 2 m/s 753 mmHg 90%
06:00 +22°C° 0 mm 1 m/s 753 mmHg 85%
07:00 +23°C° 0 mm 1 m/s 753 mmHg 79%
08:00 +25°C° 0 mm 1 m/s 753 mmHg 72%
09:00 +26°C° 0 mm 1 m/s 753 mmHg 65%
10:00 +28°C° 0 mm 1 m/s 753 mmHg 58%
11:00 +29°C° 0 mm 1 m/s 753 mmHg 54%
12:00 +30°C° 0 mm 2 m/s 752 mmHg 50%
13:00 +31°C° 0 mm 2 m/s 752 mmHg 46%
14:00 +31°C° 0 mm 2 m/s 752 mmHg 47%
15:00 +30°C° 0 mm 2 m/s 752 mmHg 47%
16:00 +30°C° 0 mm 2 m/s 751 mmHg 48%
17:00 +28°C° 0.1 mm 2 m/s 751 mmHg 55%
18:00 +27°C° 0.1 mm 2 m/s 751 mmHg 62%
19:00 +25°C° 0.1 mm 2 m/s 752 mmHg 69%
20:00 +24°C° 0 mm 2 m/s 752 mmHg 72%
21:00 +23°C° 0 mm 2 m/s 752 mmHg 75%
22:00 +21°C° 0 mm 2 m/s 752 mmHg 78%
23:00 +20°C° 0 mm 2 m/s 752 mmHg 79%

Depois de amanhã, 27 Junho, Domingo

Tempo Temperatura Precipitação Vento Pressão Humidade
00:00 +20°C° 0 mm 2 m/s 753 mmHg 81%
01:00 +20°C° 0 mm 2 m/s 753 mmHg 83%
02:00 +19°C° 0 mm 2 m/s 753 mmHg 85%
03:00 +19°C° 0 mm 2 m/s 753 mmHg 87%
04:00 +19°C° 0 mm 2 m/s 753 mmHg 89%
05:00 +20°C° 0 mm 2 m/s 753 mmHg 83%
06:00 +23°C° 0 mm 2 m/s 753 mmHg 76%
07:00 +25°C° 0 mm 3 m/s 753 mmHg 69%
08:00 +26°C° 0 mm 3 m/s 753 mmHg 64%
09:00 +27°C° 0 mm 3 m/s 753 mmHg 58%
10:00 +29°C° 0 mm 3 m/s 753 mmHg 52%
11:00 +30°C° 0 mm 3 m/s 753 mmHg 49%
12:00 +30°C° 0 mm 3 m/s 753 mmHg 46%
13:00 +31°C° 0 mm 2 m/s 753 mmHg 42%
14:00 +31°C° 0 mm 2 m/s 753 mmHg 41%
15:00 +32°C° 0 mm 2 m/s 753 mmHg 39%
16:00 +32°C° 0 mm 2 m/s 752 mmHg 38%
17:00 +30°C° 0 mm 2 m/s 752 mmHg 43%
18:00 +29°C° 0 mm 2 m/s 752 mmHg 48%
19:00 +27°C° 0 mm 2 m/s 752 mmHg 53%
20:00 +27°C° 0 mm 2 m/s 753 mmHg 54%
21:00 +26°C° 0 mm 2 m/s 753 mmHg 56%
22:00 +25°C° 0 mm 2 m/s 753 mmHg 57%
23:00 +24°C° 0 mm 2 m/s 753 mmHg 60%

28 Junho, Segunda-feira

Tempo Temperatura Precipitação Vento Pressão Humidade
00:00 +24°C° 0 mm 1 m/s 753 mmHg 63%
01:00 +23°C° 0 mm 1 m/s 753 mmHg 66%
02:00 +22°C° 0 mm 1 m/s 753 mmHg 68%
03:00 +22°C° 0 mm 1 m/s 753 mmHg 70%
04:00 +21°C° 0 mm 1 m/s 753 mmHg 71%
05:00 +23°C° 0 mm 1 m/s 753 mmHg 67%
06:00 +25°C° 0 mm 1 m/s 754 mmHg 62%
07:00 +26°C° 0 mm 1 m/s 754 mmHg 58%
08:00 +26°C° 0 mm 0 m/s 754 mmHg 53%
09:00 +28°C° 0 mm 0 m/s 754 mmHg 48%
10:00 +30°C° 0 mm 0 m/s 754 mmHg 43%
11:00 +30°C° 0 mm 0 m/s 754 mmHg 40%
12:00 +33°C° 0 mm 1 m/s 753 mmHg 37%
13:00 +34°C° 0 mm 1 m/s 753 mmHg 33%
14:00 +34°C° 0 mm 1 m/s 753 mmHg 33%
15:00 +35°C° 0 mm 2 m/s 753 mmHg 33%
16:00 +35°C° 0 mm 2 m/s 753 mmHg 32%
17:00 +32°C° 0 mm 2 m/s 752 mmHg 38%
18:00 +30°C° 0 mm 2 m/s 752 mmHg 44%
19:00 +28°C° 0 mm 2 m/s 752 mmHg 50%
20:00 +27°C° 0 mm 3 m/s 752 mmHg 52%
21:00 +26°C° 0 mm 3 m/s 752 mmHg 53%
22:00 +25°C° 0 mm 3 m/s 752 mmHg 55%
23:00 +25°C° 0 mm 3 m/s 752 mmHg 57%

29 Junho, Terça-feira

Tempo Temperatura Precipitação Vento Pressão Humidade
00:00 +24°C° 0 mm 3 m/s 752 mmHg 58%
01:00 +24°C° 0 mm 2 m/s 751 mmHg 60%
02:00 +23°C° 0 mm 2 m/s 751 mmHg 63%
03:00 +23°C° 0 mm 2 m/s 751 mmHg 66%
04:00 +21°C° 0 mm 2 m/s 751 mmHg 68%
05:00 +24°C° 0 mm 2 m/s 751 mmHg 64%
06:00 +26°C° 0 mm 2 m/s 751 mmHg 60%
07:00 +28°C° 0 mm 2 m/s 751 mmHg 55%
08:00 +30°C° 0 mm 2 m/s 751 mmHg 49%
09:00 +32°C° 0 mm 2 m/s 751 mmHg 43%
10:00 +35°C° 0 mm 2 m/s 751 mmHg 36%
11:00 +36°C° 0 mm 2 m/s 751 mmHg 34%
12:00 +36°C° 0 mm 2 m/s 750 mmHg 31%
13:00 +37°C° 0 mm 2 m/s 750 mmHg 28%
14:00 +38°C° 0 mm 2 m/s 750 mmHg 27%
15:00 +38°C° 0 mm 2 m/s 749 mmHg 27%
16:00 +38°C° 0 mm 2 m/s 749 mmHg 26%
17:00 +36°C° 0 mm 2 m/s 749 mmHg 32%
18:00 +34°C° 0 mm 3 m/s 748 mmHg 39%
19:00 +31°C° 0 mm 3 m/s 748 mmHg 45%
20:00 +29°C° 0 mm 3 m/s 748 mmHg 46%
21:00 +28°C° 0 mm 3 m/s 748 mmHg 47%
22:00 +27°C° 0 mm 3 m/s 748 mmHg 48%
23:00 +26°C° 0 mm 3 m/s 748 mmHg 49%

30 Junho, Quarta-feira

Tempo Temperatura Precipitação Vento Pressão Humidade
00:00 +26°C° 0 mm 3 m/s 748 mmHg 50%
01:00 +25°C° 0 mm 3 m/s 748 mmHg 51%
02:00 +25°C° 0 mm 3 m/s 749 mmHg 53%
03:00 +25°C° 0 mm 2 m/s 749 mmHg 55%
04:00 +24°C° 0 mm 2 m/s 749 mmHg 57%
05:00 +26°C° 0 mm 2 m/s 749 mmHg 53%
06:00 +27°C° 0 mm 2 m/s 749 mmHg 49%
07:00 +29°C° 0 mm 3 m/s 750 mmHg 45%
08:00 +30°C° 0 mm 3 m/s 750 mmHg 42%
09:00 +31°C° 0 mm 3 m/s 750 mmHg 39%
10:00 +34°C° 0 mm 3 m/s 750 mmHg 36%
11:00 +35°C° 0 mm 3 m/s 750 mmHg 34%
12:00 +36°C° 0 mm 3 m/s 749 mmHg 32%
13:00 +36°C° 0 mm 3 m/s 749 mmHg 31%
14:00 +36°C° 0 mm 3 m/s 749 mmHg 30%
15:00 +36°C° 0 mm 3 m/s 749 mmHg 30%
16:00 +36°C° 0 mm 4 m/s 749 mmHg 29%
17:00 +34°C° 0 mm 3 m/s 749 mmHg 35%
18:00 +33°C° 0 mm 3 m/s 749 mmHg 41%
19:00 +30°C° 0 mm 3 m/s 749 mmHg 47%
20:00 +28°C° 0 mm 3 m/s 749 mmHg 51%
21:00 +26°C° 0 mm 2 m/s 749 mmHg 55%
22:00 +25°C° 0 mm 2 m/s 749 mmHg 59%
23:00 +24°C° 0 mm 2 m/s 749 mmHg 62%
Mostrar mais